[[{"header":{"parameterUnit":"m.s-1","parameterCategory":1,"la1":30.2991,"la2":30.254,"lo1":-89.0895,"lo2":-89.0444,"dy":0.0017,"dx":0.0017,"nx":28,"ny":28,"refTime":"2026-01-31T09:00:00:Z","depth":0,"parameterNumber":2,"parameterNumberName":"U-component_of_WINDS"},"data":[0,0,0,0,0,0,0,0,0,0,0,0,0,0,0,0,0,0,0,0,0,0,0,0,0,0,0,0,0,0,0,0,0,0,0,0,0,0,0,0,0,0,0,0,0,0,0,0,0,0,0,0,0,0,0,0,0,0,4.4044,4.4044,0,4.4093,4.4094,4.4094,4.4061,4.406,4.4058,4.4057,4.4105,4.4108,4.4111,0,0,0,0,0,0,0,0,0,0,0,0,0,4.3921,4.3923,4.4044,4.4044,4.4045,4.4093,4.4094,4.4094,4.4062,4.406,4.4058,4.4056,4.4104,4.4108,4.4111,0,0,0,0,0,0,0,0,0,0,0,0,0,4.3973,4.3924,4.4044,4.4034,4.4034,4.4093,4.4094,4.4094,4.4062,4.406,4.4057,4.4055,4.4103,4.4107,4.4111,4.4181,0,0,4.4124,4.4125,0,0,0,0,0,0,0,0,4.397,4.3977,4.4035,4.4035,4.4035,4.4069,4.4068,4.4123,4.4063,4.4051,4.4057,4.4054,4.4095,4.4099,4.4114,4.4183,4.4185,4.4124,4.4126,4.4128,4.4129,0,0,0,0,0,0,0,4.3966,4.3975,4.4063,4.4036,4.4036,4.4028,4.4033,4.4078,4.4085,4.4052,4.405,4.4056,4.4094,4.411,4.4114,4.4186,4.4124,4.4127,4.413,4.4131,4.4318,4.432,0,0,0,0,0,0,4.3964,4.3972,4.4061,4.4065,4.3996,4.4032,4.4037,4.406,4.4084,4.4086,4.4058,4.4055,4.4104,4.411,4.4116,4.42,4.4128,4.4132,4.4134,4.4315,4.4319,4.4321,0,0,0,0,0,0,4.3961,4.3972,4.406,4.4018,4.4028,4.4036,4.4062,4.4062,4.4078,4.4089,4.409,4.4073,4.4102,4.411,4.4166,4.4202,4.4134,4.4137,4.4312,4.4316,4.432,4.4369,0,0,0,0,0,0,4.3958,4.3971,4.3997,4.4019,4.4031,4.4109,4.4064,4.4065,4.4085,4.4081,4.4103,4.4104,4.4101,4.416,4.417,4.4206,4.414,4.4309,4.4314,4.4319,4.4364,4.4374,4.4383,0,0,0,0,0,4.3953,4.4008,4.3999,4.401,4.4064,4.4111,4.4117,4.4113,4.4088,4.4115,4.4123,4.4104,4.4197,4.4166,4.4177,4.4215,4.4307,4.4313,4.4318,4.436,4.4372,4.4383,0,0,0,0,0,0,4.3989,4.4011,4.4001,4.4064,4.4086,4.4105,4.4138,4.4126,4.4155,4.4149,4.4143,4.4148,4.4206,4.4216,4.4182,4.4285,4.4248,4.4256,4.4276,4.4287,4.4296,4.4293,4.4144,0,0,0,0,0,4.4005,4.4042,4.4058,4.4113,4.4125,4.413,4.415,4.4145,4.4167,4.4176,4.4188,4.421,4.4244,4.4266,4.4298,4.4366,4.4371,4.4398,4.4407,4.4415,4.4421,4.446,4.4472,4.434,4.434,4.434,0,0,4.4037,4.4053,4.4077,4.4121,4.4137,4.4175,4.4138,4.4179,4.4207,4.4182,4.4236,4.4245,4.4269,4.4332,4.436,4.4342,4.446,4.4422,4.4428,4.4431,4.4467,4.448,4.4491,4.4344,4.4343,4.4343,0,0,4.4115,4.4131,4.4179,4.4197,4.4223,4.4227,4.4239,4.426,4.4266,4.432,4.4303,4.4337,4.4395,4.4414,4.4431,4.452,4.4504,4.453,4.4578,4.4615,4.4626,4.4635,4.4667,4.4679,4.4537,4.4538,4.4538,0,4.4151,4.4208,4.4205,4.4249,4.4269,4.425,4.4299,4.4317,4.4351,4.4366,4.4345,4.4421,4.4435,4.4503,4.4525,4.4539,4.4553,4.4527,4.4625,4.4634,4.4642,4.4673,4.4685,4.4541,4.454,4.454,4.454,0,4.4252,4.4293,4.4328,4.4364,4.4389,4.4435,4.4439,4.4464,4.4458,4.4465,4.4521,4.4538,4.4575,4.459,4.4584,4.4658,4.4646,4.4625,4.4588,4.4658,4.4687,4.4699,4.4545,4.4544,4.4543,4.4542,0,0,4.4352,4.4388,4.4401,4.4418,4.4447,4.4478,4.4524,4.4561,4.4583,4.4609,4.4647,4.4699,4.4681,4.4701,4.4697,4.473,4.4801,4.4706,4.4706,4.4723,4.4885,4.49,4.4914,4.4791,4.4794,4.4795,4.4883,0,4.4432,4.4513,4.4513,4.4587,4.4625,4.4609,4.465,4.4672,4.468,4.4713,4.4722,4.4759,4.4732,4.4744,4.4776,4.4786,4.4833,4.4779,4.4827,4.4829,4.4821,4.4929,4.4944,4.5026,4.4894,4.4896,4.4897,0,4.4535,4.4566,4.4645,4.4671,4.4687,4.4723,4.4758,4.479,4.4816,4.482,4.4843,4.4835,4.4883,4.4845,4.4911,4.4875,4.4895,4.4903,4.4906,4.491,4.4867,4.4935,4.5051,4.5064,4.4915,4.4914,4.4912,0,4.4601,4.4662,4.4718,4.4733,4.4764,4.4791,4.4805,4.4828,4.4851,4.4882,4.4897,4.4933,4.4952,4.498,4.4982,4.4954,4.5049,4.5011,4.5053,4.5054,4.5073,4.5072,4.5194,4.5087,4.5087,4.5086,4.5086,0,4.469,4.4739,4.4748,4.4782,4.4838,4.4838,4.4892,4.4904,4.4926,4.4962,4.4951,4.4985,4.4986,4.5022,4.5024,4.5079,4.5088,4.5092,4.5092,4.5093,4.5093,4.5105,4.51,4.509,4.5089,4.5088,4.5088,0,4.4772,4.478,4.484,4.4866,4.4873,4.4913,4.4935,4.4968,4.4976,4.5023,4.5034,4.5046,4.5088,4.5093,4.5141,4.5143,4.5209,4.5203,4.5201,4.52,4.5242,4.5238,4.5376,4.5395,4.5276,4.5277,4.5278,0,4.4828,4.4866,4.4896,4.4921,4.4937,4.4976,4.5,4.5002,4.5028,4.5062,4.5091,4.5132,4.5164,4.5232,4.5245,4.5282,4.5277,4.5323,4.5282,4.5283,4.5278,4.5276,4.528,4.5331,4.5332,4.5333,4.5334,0,4.4927,4.493,4.4965,4.5003,4.5033,4.5062,4.509,4.5111,4.5117,4.5146,4.519,4.5215,4.5266,4.5307,4.5344,4.5359,4.5348,4.5347,4.5359,4.536,4.5357,4.536,4.5222,4.5344,4.5343,4.5342,4.5341,4.5341,4.4997,4.5031,4.5059,4.51,4.5121,4.5148,4.5181,4.5195,4.5231,4.5273,4.5272,4.532,4.5347,4.5397,4.5415,4.5452,4.5437,4.5454,4.5458,4.5462,4.5467,4.5352,4.5459,4.5459,4.5458,4.5458,4.5458,0,4.5096,4.5114,4.5152,4.5192,4.5225,4.5213,4.5244,4.5272,4.5315,4.5341,4.5375,4.5425,4.5466,4.5483,4.5523,4.555,4.5546,4.5561,4.5558,4.5562,4.5478,4.5464,4.5563,4.5563,4.5563,4.5563,4.5563,4.5563,4.5151,4.5208,4.5215,4.5283,4.5301,4.5348,4.5367,4.5392,4.5414,4.5472,4.5506,4.5517,4.5541,4.5583,4.562,4.5624,4.564,4.5656,4.5658,4.5579,4.5568,4.5558,4.5545,4.566,4.566,4.574,4.574,4.5741]},{"header":{"parameterUnit":"m.s-1","parameterCategory":1,"la1":30.2991,"la2":30.254,"lo1":-89.0895,"lo2":-89.0444,"dy":0.0017,"dx":0.0017,"nx":28,"ny":28,"refTime":"2026-01-31T09:00:00:Z","depth":0,"parameterNumber":3,"parameterNumberName":"V-component_of_WINDS"},"data":[0,0,0,0,0,0,0,0,0,0,0,0,0,0,0,0,0,0,0,0,0,0,0,0,0,0,0,0,0,0,0,0,0,0,0,0,0,0,0,0,0,0,0,0,0,0,0,0,0,0,0,0,0,0,0,0,0,0,-9.2438,-9.244,0,-9.2611,-9.2613,-9.2615,-9.2573,-9.2569,-9.2566,-9.2563,-9.2734,-9.2741,-9.2749,0,0,0,0,0,0,0,0,0,0,0,0,0,-9.2068,-9.2075,-9.2438,-9.244,-9.2442,-9.261,-9.2613,-9.2615,-9.2573,-9.2569,-9.2565,-9.2561,-9.2731,-9.274,-9.275,0,0,0,0,0,0,0,0,0,0,0,0,0,-9.2234,-9.2078,-9.2437,-9.2442,-9.2444,-9.261,-9.2613,-9.2616,-9.2574,-9.2569,-9.2564,-9.2559,-9.2728,-9.274,-9.2751,-9.2922,0,0,-9.2786,-9.2791,0,0,0,0,0,0,0,0,-9.2224,-9.2247,-9.2439,-9.2442,-9.2444,-9.2565,-9.2545,-9.2718,-9.2575,-9.2524,-9.2563,-9.2557,-9.2681,-9.2696,-9.274,-9.293,-9.2937,-9.2787,-9.2794,-9.2799,-9.2802,0,0,0,0,0,0,0,-9.2213,-9.2239,-9.2506,-9.2442,-9.2445,-9.2434,-9.2452,-9.2578,-9.2629,-9.2528,-9.2526,-9.2547,-9.2682,-9.2729,-9.2743,-9.2939,-9.2787,-9.2797,-9.2804,-9.2808,-9.3281,-9.3286,0,0,0,0,0,0,-9.22,-9.223,-9.25,-9.2511,-9.232,-9.2445,-9.2465,-9.2531,-9.2627,-9.2637,-9.2551,-9.2545,-9.2711,-9.273,-9.2749,-9.2957,-9.2799,-9.281,-9.2816,-9.3275,-9.3282,-9.3288,0,0,0,0,0,0,-9.2192,-9.2224,-9.2493,-9.237,-9.2404,-9.2456,-9.2531,-9.2537,-9.2584,-9.2645,-9.2653,-9.259,-9.2708,-9.2733,-9.288,-9.2962,-9.2815,-9.2825,-9.3268,-9.3277,-9.3285,-9.3373,0,0,0,0,0,0,-9.2182,-9.2222,-9.2288,-9.2372,-9.241,-9.2623,-9.2536,-9.2544,-9.2605,-9.2598,-9.2683,-9.2692,-9.2706,-9.2863,-9.2892,-9.2975,-9.2834,-9.3261,-9.3272,-9.3282,-9.3363,-9.3384,-9.3401,0,0,0,0,0,-9.2169,-9.2304,-9.2291,-9.2324,-9.2494,-9.2628,-9.2649,-9.2664,-9.2611,-9.2678,-9.2717,-9.269,-9.2949,-9.2879,-9.291,-9.2999,-9.3256,-9.3269,-9.3281,-9.3355,-9.338,-9.3401,0,0,0,0,0,0,-9.2225,-9.2315,-9.2302,-9.2469,-9.2542,-9.262,-9.2705,-9.269,-9.2777,-9.2767,-9.278,-9.28,-9.295,-9.2989,-9.2909,-9.317,-9.3095,-9.3114,-9.314,-9.3164,-9.3182,-9.317,-9.2844,0,0,0,0,0,-9.2258,-9.236,-9.2432,-9.2573,-9.261,-9.2652,-9.271,-9.2716,-9.279,-9.282,-9.287,-9.2942,-9.304,-9.3104,-9.3197,-9.3369,-9.3387,-9.3445,-9.3464,-9.348,-9.3496,-9.3592,-9.3619,-9.333,-9.333,-9.3329,0,0,-9.2325,-9.2386,-9.245,-9.2586,-9.2642,-9.2747,-9.2677,-9.279,-9.2868,-9.2836,-9.298,-9.3019,-9.31,-9.3261,-9.3334,-9.3298,-9.3581,-9.3496,-9.3508,-9.3516,-9.3608,-9.3635,-9.366,-9.3338,-9.3337,-9.3335,0,0,-9.2501,-9.2558,-9.2682,-9.2742,-9.283,-9.2857,-9.2887,-9.2969,-9.2995,-9.3139,-9.3118,-9.321,-9.3378,-9.3438,-9.349,-9.3692,-9.3671,-9.3722,-9.3821,-9.3914,-9.3937,-9.3957,-9.4031,-9.4057,-9.3739,-9.3739,-9.3739,0,-9.2573,-9.2732,-9.2747,-9.2864,-9.2925,-9.2904,-9.303,-9.3086,-9.3199,-9.3241,-9.3199,-9.3412,-9.3465,-9.364,-9.369,-9.3733,-9.3768,-9.3712,-9.3933,-9.3953,-9.3973,-9.4043,-9.407,-9.3745,-9.3744,-9.3743,-9.3743,0,-9.2816,-9.2927,-9.3016,-9.313,-9.32,-9.3321,-9.3355,-9.3424,-9.3424,-9.3456,-9.3604,-9.3667,-9.3774,-9.3816,-9.3816,-9.3993,-9.3968,-9.393,-9.3854,-9.4006,-9.4072,-9.4099,-9.3753,-9.3751,-9.3749,-9.3748,0,0,-9.3031,-9.3154,-9.3187,-9.3239,-9.3336,-9.3421,-9.3541,-9.3648,-9.3708,-9.3787,-9.3888,-9.4033,-9.3999,-9.4058,-9.4065,-9.4147,-9.4305,-9.4099,-9.4101,-9.4136,-9.4505,-9.4533,-9.4564,-9.4291,-9.4296,-9.4301,-9.4498,0,-9.3217,-9.3431,-9.345,-9.3641,-9.3744,-9.3727,-9.3832,-9.3902,-9.3935,-9.4027,-9.4062,-9.4165,-9.4112,-9.4148,-9.4228,-9.4269,-9.4379,-9.4255,-9.4385,-9.4389,-9.4366,-9.4599,-9.4629,-9.4812,-9.4524,-9.4529,-9.4532,0,-9.3462,-9.3552,-9.3755,-9.384,-9.3884,-9.3978,-9.4078,-9.4166,-9.4246,-9.4264,-9.4333,-9.4329,-9.4452,-9.4372,-9.4542,-9.4457,-9.4512,-9.454,-9.4547,-9.456,-9.447,-9.4618,-9.4871,-9.4899,-9.4572,-9.4569,-9.4566,0,-9.3601,-9.3772,-9.3916,-9.3961,-9.4063,-9.413,-9.4175,-9.425,-9.4314,-9.4402,-9.4444,-9.4544,-9.4598,-9.4676,-9.4699,-9.4639,-9.4869,-9.479,-9.4887,-9.4887,-9.4936,-9.4933,-9.5202,-9.4971,-9.497,-9.497,-9.4969,0,-9.3806,-9.3931,-9.398,-9.4069,-9.4208,-9.4229,-9.4366,-9.4407,-9.4475,-9.4571,-9.4561,-9.4651,-9.4676,-9.4771,-9.479,-9.4928,-9.4952,-9.4971,-9.4974,-9.4972,-9.497,-9.5008,-9.4996,-9.4977,-9.4975,-9.4974,-9.4973,0,-9.3984,-9.4022,-9.4178,-9.4264,-9.4288,-9.4387,-9.446,-9.4545,-9.4577,-9.4699,-9.4729,-9.4779,-9.489,-9.4922,-9.5053,-9.5066,-9.523,-9.5221,-9.5204,-9.5204,-9.5299,-9.529,-9.5603,-9.5645,-9.5385,-9.5388,-9.539,0,-9.4113,-9.421,-9.4306,-9.4371,-9.4421,-9.4524,-9.4591,-9.4615,-9.4684,-9.4784,-9.4857,-9.4967,-9.5057,-9.5235,-9.5282,-9.5384,-9.5378,-9.5481,-9.5393,-9.5389,-9.5381,-9.5375,-9.5385,-9.5497,-9.55,-9.5502,-9.5504,0,-9.4339,-9.4354,-9.4451,-9.4556,-9.4636,-9.4718,-9.4798,-9.4851,-9.4886,-9.4965,-9.508,-9.5149,-9.5286,-9.5396,-9.5499,-9.5544,-9.5531,-9.5531,-9.5559,-9.5558,-9.5545,-9.5554,-9.525,-9.5524,-9.5522,-9.552,-9.5519,-9.5518,-9.4497,-9.4583,-9.4666,-9.4774,-9.4837,-9.4913,-9.4998,-9.5043,-9.5139,-9.5255,-9.5262,-9.5387,-9.5466,-9.5604,-9.5655,-9.5752,-9.5722,-9.5762,-9.5772,-9.5782,-9.5791,-9.5529,-9.5771,-9.577,-9.577,-9.5769,-9.5769,0,-9.4723,-9.4777,-9.4877,-9.499,-9.5076,-9.5058,-9.5145,-9.5218,-9.5329,-9.5405,-9.5494,-9.5627,-9.5734,-9.5791,-9.5897,-9.5964,-9.5961,-9.5992,-9.5987,-9.5998,-9.5811,-9.5777,-9.5993,-9.5993,-9.5993,-9.5993,-9.5993,-9.5993,-9.4851,-9.4996,-9.5021,-9.5197,-9.5249,-9.5373,-9.5425,-9.5494,-9.5555,-9.5705,-9.5795,-9.5832,-9.5901,-9.6013,-9.611,-9.6124,-9.6164,-9.6199,-9.6209,-9.6034,-9.6011,-9.5989,-9.5957,-9.6207,-9.6207,-9.6388,-9.639,-9.6391]}]]